Sussex, Wisconsin, United States (53089)
Lat: 43.13N, Lon: 88.22W
Wx Zone: WIZ065
Local Info
Past Weather Observations for Today

NOTE: This archive is for the closest National Weather Service station to Sussex. Information may differ from the station used for current weather conditions.

Time Weather Temperature Dewpoint Humidity Pressure Winds Precip Visibility
22:15
Mostly Cloudy
Drizzle
59°F / 15°C 41°F / 5°C 51% 30.01 in
(1016 mb)
S 3.5 mph
(S 6 kph)
- 10SM
21:55
Partly Cloudy
59°F / 15°C 41°F / 5°C 51% 30.01 in
(1016 mb)
Calm - 10SM
21:35
Partly Cloudy
61°F / 16°C 41°F / 5°C 48% 30.01 in
(1016 mb)
S 3.5 mph
(S 6 kph)
- 10SM
21:15
Clear
61°F / 16°C 41°F / 5°C 48% 30.01 in
(1016 mb)
S 3.5 mph
(S 6 kph)
- 10SM
20:55
Clear
61°F / 16°C 41°F / 5°C 48% 30.01 in
(1016 mb)
S 4.6 mph
(S 7 kph)
- 10SM
20:35
Clear
63°F / 17°C 39°F / 4°C 42% 30.01 in
(1016 mb)
S 5.8 mph
(S 9 kph)
- 10SM
20:15
Clear
61°F / 16°C 39°F / 4°C 45% 30.01 in
(1016 mb)
S 4.6 mph
(S 7 kph)
- 10SM
19:45
Partly Cloudy
63°F / 17°C 41°F / 5°C 45% 30.01 in
(1016 mb)
SE 9.2 mph
(SE 15 kph)
- 10SM
18:45
Mostly Cloudy
64°F / 18°C 43°F / 6°C 46% 30.04 in
(1017 mb)
SE 9.2 mph
(SE 15 kph)
- 10SM
17:45
Mostly Cloudy
73°F / 23°C 41°F / 5°C 31% 30.04 in
(1017 mb)
SW 9.2 mph
(SW 15 kph)
- 10SM
16:45
Partly Cloudy
73°F / 23°C 41°F / 5°C 31% 30.04 in
(1017 mb)
SW 9.2 mph
(SW 15 kph)
- 10SM
15:45
Partly Cloudy
75°F / 24°C 41°F / 5°C 29% 30.06 in
(1018 mb)
SW 15 mph
(SW 24 kph)
- 10SM
14:45
Partly Cloudy
73°F / 23°C 43°F / 6°C 33% 30.06 in
(1018 mb)
SSE 15 mph
(SSE 24 kph)
- 10SM
13:45
Partly Cloudy
73°F / 23°C 43°F / 6°C 33% 30.09 in
(1019 mb)
SW 9.2 mph
(SW 15 kph)
- 10SM
12:45
Partly Cloudy
72°F / 22°C 41°F / 5°C 33% 30.12 in
(1020 mb)
SW 11.5 mph
(SW 19 kph)
- 10SM
11:45
Partly Cloudy
72°F / 22°C 39°F / 4°C 31% 30.12 in
(1020 mb)
SW 11.5 mph
(SW 19 kph)
- 10SM
10:45
Partly Cloudy
66°F / 19°C 37°F / 3°C 35% 30.15 in
(1021 mb)
SW 9.2 mph
(SW 15 kph)
- 10SM
09:45
Mostly Cloudy
59°F / 15°C 36°F / 2°C 42% 30.18 in
(1022 mb)
S 10.4 mph
(S 17 kph)
- 10SM
08:45
Mostly Cloudy
57°F / 14°C 36°F / 2°C 44% 30.18 in
(1022 mb)
SSE 9.2 mph
(SSE 15 kph)
- 10SM
07:45
Clear
54°F / 12°C 36°F / 2°C 51% 30.21 in
(1023 mb)
S 6.9 mph
(S 11 kph)
- 10SM
06:45
Partly Cloudy
48°F / 9°C 36°F / 2°C 62% 30.21 in
(1023 mb)
S 6.9 mph
(S 11 kph)
- 10SM
05:45
Clear
46°F / 8°C 34°F / 1°C 62% 30.21 in
(1023 mb)
S 6.9 mph
(S 11 kph)
- 10SM
04:45
Clear
46°F / 8°C 34°F / 1°C 62% 30.18 in
(1022 mb)
S 6.9 mph
(S 11 kph)
- 10SM
04:35
Clear
45°F / 7°C 34°F / 1°C 66% 30.18 in
(1022 mb)
S 8.1 mph
(S 13 kph)
- 10SM
04:15
Clear
45°F / 7°C 34°F / 1°C 66% 30.18 in
(1022 mb)
S 9.2 mph
(S 15 kph)
- 10SM
03:55
Clear
45°F / 7°C 34°F / 1°C 66% 30.18 in
(1022 mb)
S 8.1 mph
(S 13 kph)
- 10SM
03:35
Clear
45°F / 7°C 34°F / 1°C 66% 30.18 in
(1022 mb)
S 6.9 mph
(S 11 kph)
- 10SM
03:15
Clear
45°F / 7°C 34°F / 1°C 66% 30.18 in
(1022 mb)
S 9.2 mph
(S 15 kph)
- 10SM
02:55
Clear
45°F / 7°C 34°F / 1°C 66% 30.18 in
(1022 mb)
S 9.2 mph
(S 15 kph)
- 10SM
02:35
Clear
46°F / 8°C 34°F / 1°C 62% 30.21 in
(1023 mb)
S 9.2 mph
(S 15 kph)
- 10SM
02:15
Clear
46°F / 8°C 34°F / 1°C 62% 30.21 in
(1023 mb)
S 9.2 mph
(S 15 kph)
- 10SM
01:55
Clear
46°F / 8°C 34°F / 1°C 62% 30.21 in
(1023 mb)
S 8.1 mph
(S 13 kph)
- 10SM
01:35
Clear
46°F / 8°C 34°F / 1°C 62% 30.21 in
(1023 mb)
S 9.2 mph
(S 15 kph)
- 10SM
01:15
Clear
46°F / 8°C 34°F / 1°C 62% 30.21 in
(1023 mb)
S 9.2 mph
(S 15 kph)
- 10SM
00:55
Clear
46°F / 8°C 34°F / 1°C 62% 30.21 in
(1023 mb)
S 9.2 mph
(S 15 kph)
- 10SM
00:35
Clear
46°F / 8°C 34°F / 1°C 62% 30.21 in
(1023 mb)
S 10.4 mph
(S 17 kph)
- 10SM
00:15
Clear
46°F / 8°C 34°F / 1°C 62% 30.21 in
(1023 mb)
S 9.2 mph
(S 15 kph)
- 10SM
Time Weather Temperature Dewpoint Humidity Pressure Winds Precip Visibility


Weather for websites

WeatherForYou.com, LLC is not responsible for any damages or problems caused by this service. Current weather conditions are obtained from the closest station including government and personal stations which may have varying degrees of accuracy. Weather forecasts are derived from the NOAA NDFD. Like all things, this site belongs to Jesus Christ... He just trusts me to maintain it. If you have any questions or comments email webmaster@weatherforyou.com

Copyright © 2014, WeatherForYou.com LLC. All rights reserved.